User: anonymous   Login
Location: Unspecified
(0.0000°N, 0.0000°E)
Time: 20:15:20
(UTC+00:00)
Language:

Vela 4A - Orbit

View from above orbital plane
View from above orbital plane
View from above satellite
View from above satellite

Ground track
Ground track

The orbit data is extracted from the following two-line orbital elements,

1 02765U 67040A   16237.39367432 -.00000999  00000-0  00000+0 0  9990
2 02765   6.3777  19.3765 4778915 179.9547 354.8945  0.21542284 38698
Epoch (UTC): 24 August 2016 09:26:53
Eccentricity: 0.4778915
inclination: 6.3777°
perigee height: 54993 km
apogee height: 167340 km
right ascension of ascending node: 19.3765°
argument of perigee: 179.9547°
revolutions per day: 0.21542284
mean anomaly at epoch: 354.8945°
orbit number at epoch: 3869

The dashed part of the orbit path shows where the satellite is in the earth's shadow,  

DLR